Other Public Products
Issued by NWS Charleston, SC

Home | Current Version | Previous Version | Text Only | Print | Product List | Glossary On
Versions: 1 2 3 4 5 6 7 8 9 10 11 12 13 14 15 16 17 18 19 20 21 22 23 24 25 26 27 28 29 30 31 32 33 34 35 36 37 38 39 40 41 42 43 44 45 46 47 48 49 50
000
FPUS82 KCHS 230627
OPUCHS

TEST...KCHS/KSAV Gateway Observations...TEST
National Weather Service Charleston SC
100 AM EST FRI FEB 23 2018

NOTE: "fair" indicates few or no clouds below 12,000 feet with no
significant weather and/or obstructions to visibility.

SCZ050-WAZ558-NCZ071-TXZ119-213-PAZ071-DCZ001-FLZ074-172-MI076-
NYZ176-178-MAZ016-IL014-TNZ027-NJZ106-GAZ044-MD014-230700-

...Gateway Observations for Charleston International...

CITY           SKY/WX    TMP DP  RH WIND       PRES   REMARKS
Chas Airport   FAIR      64  61  90 CALM      30.43S
6HR MIN TEMP:  61; 6HR MAX TEMP:  71;

Seattle        CLEAR     32  19  58 NE8       30.41R WCI  25
6HR MIN TEMP:  31; 6HR MAX TEMP:  38;

Charlotte      FAIR      63  60  90 S5        30.41R
6HR MIN TEMP:  62; 6HR MAX TEMP:  73;

Dallas DFW     CLOUDY    41  38  89 NW5       30.22F
6HR MIN TEMP:  39; 6HR MAX TEMP:  42; 6HR PCP: TRACE;

Dallas Love    CLOUDY    41  38  89 NW5       30.24S
6HR MIN TEMP:  38; 6HR MAX TEMP:  41; 6HR PCP: TRACE;

Philladelphia  CLOUDY    38  36  92 NE10      30.62F WCI  31
6HR MIN TEMP:  38; 6HR MAX TEMP:  40; 6HR PCP: TRACE;

Wash National  CLOUDY    42  40  92 NE9       30.60S FOG
6HR MIN TEMP:  43; 6HR MAX TEMP:  48;

Baltimore      CLOUDY    40  39  97 E10       30.60S WCI  33
6HR MIN TEMP:  40; 6HR MAX TEMP:  43; 6HR PCP: TRACE;

Miami          FAIR      76  68  76 E13       30.31F
6HR MIN TEMP:  74; 6HR MAX TEMP:  77;

Detroit        CLOUDY    35  31  85 E10       30.41F WCI  27
6HR MIN TEMP:  35; 6HR MAX TEMP:  37;

Newark         CLOUDY    38  34  85 NE10      30.67R WCI  31
6HR MIN TEMP:  38; 6HR MAX TEMP:  40;

Laguardia      CLOUDY    38  33  82 NE15      30.67S WCI  29
6HR MIN TEMP:  37; 6HR MAX TEMP:  40;

J F K          CLOUDY    37  34  89 NE10      30.69R WCI  30
6HR MIN TEMP:  37; 6HR MAX TEMP:  38;

Boston Logan   MOCLDY    34  30  85 N3        30.69F
6HR MIN TEMP:  32; 6HR MAX TEMP:  35; 6HR PCP:  0.01;

Ft. Lauderdale FAIR      76  68  76 E14       30.30F
6HR MIN TEMP:  75; 6HR MAX TEMP:  76;

Chicago O`Hare CLOUDY    39  35  86 SE13      30.27F FOG     WCI  31
6HR MIN TEMP:  38; 6HR MAX TEMP:  40;

Chicago Midway CLOUDY    40  38  93 SE10      30.28F FOG     WCI  33
6HR MIN TEMP:  40; 6HR MAX TEMP:  41;

Houston Bush   FOG       58  58 100 N7        30.21S VSB 1/2
6HR MIN TEMP:  58; 6HR MAX TEMP:  69; 6HR PCP:  0.05;

Houston Hobby  CLOUDY    65  65 100 CALM      30.20S
6HR MIN TEMP:  65; 6HR MAX TEMP:  74;

Nashville      FAIR      56  55  97 CALM      30.28F
6HR MIN TEMP:  55; 6HR MAX TEMP:  59;

Atlanta        FAIR      65  61  87 S3        30.39S
6HR MIN TEMP:  65; 6HR MAX TEMP:  73;


$$

GAZ044-118-TXZ119-213-NCZ071-DCZ001-MDZ014-506-PAZ021-071-NJZ106-
NYZ176-178-MAZ106-OHZ011-021-055-MIZ076-KYZ091-ILZ014-INZ047-
MNZ060-ONZ431-230700-

...Gateway Observations for Savannah International...

CITY           SKY/WX    TMP DP  RH WIND       PRES   REMARKS
Savannah Arpt  FAIR      59  59 100 CALM      30.42F FOG
6HR MIN TEMP:  59; 6HR MAX TEMP:  71;

Atlanta        FAIR      65  61  87 S3        30.39S
6HR MIN TEMP:  65; 6HR MAX TEMP:  73;

Charlotte      FAIR      63  60  90 S5        30.41R
6HR MIN TEMP:  62; 6HR MAX TEMP:  73;

Dallas DFW     CLOUDY    41  38  89 NW5       30.22F
6HR MIN TEMP:  39; 6HR MAX TEMP:  42; 6HR PCP: TRACE;

Houston Bush   FOG       58  58 100 N7        30.21S VSB 1/2
6HR MIN TEMP:  58; 6HR MAX TEMP:  69; 6HR PCP:  0.05;

Wash National  CLOUDY    42  40  92 NE9       30.60S FOG
6HR MIN TEMP:  43; 6HR MAX TEMP:  48;

Wash Dulles    CLOUDY    41  38  89 E9        30.59F
6HR MIN TEMP:  41; 6HR MAX TEMP:  45; 6HR PCP: TRACE;

Baltimore      CLOUDY    40  39  97 E10       30.60S WCI  33
6HR MIN TEMP:  40; 6HR MAX TEMP:  43; 6HR PCP: TRACE;

Philadelphia   CLOUDY    38  36  92 NE10      30.62F WCI  31
6HR MIN TEMP:  38; 6HR MAX TEMP:  40; 6HR PCP: TRACE;

Newark         CLOUDY    38  34  85 NE10      30.67R WCI  31
6HR MIN TEMP:  38; 6HR MAX TEMP:  40;

Laguardia      CLOUDY    38  33  82 NE15      30.67S WCI  29
6HR MIN TEMP:  37; 6HR MAX TEMP:  40;

J F K          CLOUDY    37  34  89 NE10      30.69R WCI  30
6HR MIN TEMP:  37; 6HR MAX TEMP:  38;

Boston         MOCLDY    34  30  85 N3        30.69F
6HR MIN TEMP:  32; 6HR MAX TEMP:  35; 6HR PCP:  0.01;

Pittsburg      CLOUDY    41  39  93 SE7       30.41S
6HR MIN TEMP:  40; 6HR MAX TEMP:  41; 6HR PCP: TRACE;

Akron          CLOUDY    41  38  89 SE8       30.40S FOG
6HR MIN TEMP:  42; 6HR MAX TEMP:  45;

Cleveland      CLOUDY    38  35  89 NE3       30.44F
6HR MIN TEMP:  35; 6HR MAX TEMP:  38;

Cincinnati     DRIZZLE   45  45 100 SE8       30.34F FOG
6HR MIN TEMP:  44; 6HR MAX TEMP:  45; 6HR PCP: TRACE;

Columbus       CLOUDY    42  42 100 CALM      30.37F FOG
Detroit        CLOUDY    35  31  85 E10       30.41F WCI  27
6HR MIN TEMP:  35; 6HR MAX TEMP:  37;

Chicago O`Hare CLOUDY    39  35  86 SE13      30.27F FOG     WCI  31
6HR MIN TEMP:  38; 6HR MAX TEMP:  40;

Minneapolis    SNOW      26  26 100 E7        30.18F VSB 1/2 WCI  18
6HR MIN TEMP:  26; 6HR MAX TEMP:  29; 6HR PCP:  0.29;

Indianapolis   DRIZZLE   44  43  96 SE9       30.32F FOG
6HR MIN TEMP:  43; 6HR MAX TEMP:  44; 6HR PCP: TRACE;

Toronto Canada CLOUDY    30  23  74 E9        30.58F WCI  22

$$




USA.gov is the U.S. government's official web portal to all federal, state and local government web resources and services.